Time,TemperatureF,DewpointF,PressureIn,WindDirection,WindDirectionDegrees,WindSpeedMPH,WindSpeedGustMPH,Humidity,HourlyPrecipIn,Conditions,Clouds,dailyrainin,SoftwareType,DateUTC
2014-03-03 00:00:00,-5.0,-19.7,30.19,NNW,330,5.0,8.0,48,0.00,,---,0.00,VWS V14.01,2014-03-03 06:00:00,
2014-03-03 00:01:00,-3.9,-19.9,30.20,NW,317,8.0,8.0,45,0.00,,---,0.00,VWS V14.01,2014-03-03 06:01:00,
2014-03-03 00:05:00,-5.0,-19.7,30.19,NNW,329,7.0,7.0,48,0.00,,---,0.00,VWS V14.01,2014-03-03 06:05:00,
2014-03-03 00:06:00,-4.1,-20.1,30.20,NW,312,7.0,9.0,45,0.00,,---,0.00,VWS V14.01,2014-03-03 06:06:00,
2014-03-03 00:10:00,-5.2,-19.8,30.19,NNW,331,6.0,8.0,48,0.00,,---,0.00,VWS V14.01,2014-03-03 06:10:00,
2014-03-03 00:11:00,-3.9,-19.9,30.19,NW,319,6.0,8.0,45,0.00,,---,0.00,VWS V14.01,2014-03-03 06:11:00,
2014-03-03 00:15:00,-5.2,-19.8,30.18,NW,321,6.0,8.0,48,0.00,,---,0.00,VWS V14.01,2014-03-03 06:15:00,
2014-03-03 00:16:00,-4.1,-19.6,30.19,NW,320,7.0,7.0,46,0.00,,---,0.00,VWS V14.01,2014-03-03 06:16:00,
2014-03-03 00:20:00,-5.2,-19.8,30.18,NW,323,3.0,7.0,48,0.00,,---,0.00,VWS V14.01,2014-03-03 06:20:00,
2014-03-03 00:21:00,-4.1,-19.6,30.19,NW,322,7.0,7.0,46,0.00,,---,0.00,VWS V14.01,2014-03-03 06:21:00,
2014-03-03 00:25:00,-5.4,-19.6,30.18,NNW,329,6.0,7.0,49,0.00,,---,0.00,VWS V14.01,2014-03-03 06:25:00,
2014-03-03 00:26:00,-4.1,-19.6,30.18,NW,315,5.0,7.0,46,0.00,,---,0.00,VWS V14.01,2014-03-03 06:26:00,
2014-03-03 00:30:00,-5.4,-19.6,30.18,NNW,329,5.0,7.0,49,0.00,,---,0.00,VWS V14.01,2014-03-03 06:30:00,
2014-03-03 00:31:00,-4.3,-19.8,30.18,NW,315,3.0,6.0,46,0.00,,---,0.00,VWS V14.01,2014-03-03 06:31:00,
2014-03-03 00:35:00,-5.6,-19.8,30.18,NNW,329,4.0,5.0,49,0.00,,---,0.00,VWS V14.01,2014-03-03 06:35:00,
2014-03-03 00:36:00,-4.6,-20.1,30.18,NW,315,4.0,5.0,46,0.00,,---,0.00,VWS V14.01,2014-03-03 06:36:00,
2014-03-03 00:40:00,-5.9,-20.1,30.18,NNW,328,5.0,5.0,49,0.00,,---,0.00,VWS V14.01,2014-03-03 06:40:00,
2014-03-03 00:41:00,-4.8,-19.9,30.19,NW,317,5.0,6.0,47,0.00,,---,0.00,VWS V14.01,2014-03-03 06:41:00,
2014-03-03 00:45:00,-6.1,-19.9,30.18,NNW,329,4.0,6.0,50,0.00,,---,0.00,VWS V14.01,2014-03-03 06:45:00,
2014-03-03 00:46:00,-4.8,-19.9,30.19,NW,321,7.0,7.0,47,0.00,,---,0.00,VWS V14.01,2014-03-03 06:46:00,
2014-03-03 00:50:00,-6.1,-19.9,30.18,NW,321,7.0,7.0,50,0.00,,---,0.00,VWS V14.01,2014-03-03 06:50:00,
2014-03-03 00:51:00,-5.0,-20.1,30.19,NW,319,6.0,7.0,47,0.00,,---,0.00,VWS V14.01,2014-03-03 06:51:00,
2014-03-03 00:55:00,-6.1,-19.9,30.18,NW,322,5.0,7.0,50,0.00,,---,0.00,VWS V14.01,2014-03-03 06:55:00,
2014-03-03 00:56:00,-5.0,-20.1,30.19,NW,319,7.0,8.0,47,0.00,,---,0.00,VWS V14.01,2014-03-03 06:56:00,
2014-03-03 01:00:00,-6.1,-19.9,30.19,NW,321,6.0,6.0,50,0.00,,---,0.00,VWS V14.01,2014-03-03 07:00:00,
2014-03-03 01:01:00,-5.0,-20.1,30.19,NW,321,6.0,8.0,47,0.00,,---,0.00,VWS V14.01,2014-03-03 07:01:00,
2014-03-03 01:05:00,-6.3,-20.1,30.19,NW,311,5.0,7.0,50,0.00,,---,0.00,VWS V14.01,2014-03-03 07:05:00,
2014-03-03 01:06:00,-5.0,-20.1,30.19,NW,321,7.0,8.0,47,0.00,,---,0.00,VWS V14.01,2014-03-03 07:06:00,
2014-03-03 01:10:00,-6.3,-19.7,30.19,NNW,328,5.0,7.0,51,0.00,,---,0.00,VWS V14.01,2014-03-03 07:10:00,
2014-03-03 01:11:00,-5.0,-19.7,30.19,NNW,327,6.0,7.0,48,0.00,,---,0.00,VWS V14.01,2014-03-03 07:11:00,
2014-03-03 01:15:00,-6.3,-19.7,30.17,NW,314,5.0,7.0,51,0.00,,---,0.00,VWS V14.01,2014-03-03 07:15:00,
2014-03-03 01:16:00,-5.2,-19.8,30.19,North,356,6.0,8.0,48,0.00,,---,0.00,VWS V14.01,2014-03-03 07:16:00,
2014-03-03 01:20:00,-6.3,-19.7,30.17,NW,315,6.0,7.0,51,0.00,,---,0.00,VWS V14.01,2014-03-03 07:20:00,
2014-03-03 01:21:00,-5.2,-19.8,30.19,NNW,338,4.0,6.0,48,0.00,,---,0.00,VWS V14.01,2014-03-03 07:21:00,
2014-03-03 01:25:00,-6.3,-19.7,30.17,NW,319,5.0,7.0,51,0.00,,---,0.00,VWS V14.01,2014-03-03 07:25:00,
2014-03-03 01:26:00,-5.2,-19.5,30.18,NW,316,4.0,7.0,49,0.00,,---,0.00,VWS V14.01,2014-03-03 07:26:00,
2014-03-03 01:30:00,-6.5,-19.5,30.17,NW,324,3.0,7.0,52,0.00,,---,0.00,VWS V14.01,2014-03-03 07:30:00,
2014-03-03 01:31:00,-5.4,-19.6,30.18,NW,321,5.0,7.0,49,0.00,,---,0.00,VWS V14.01,2014-03-03 07:31:00,
2014-03-03 01:35:00,-6.5,-19.5,30.17,NW,320,5.0,7.0,52,0.00,,---,0.00,VWS V14.01,2014-03-03 07:35:00,
2014-03-03 01:36:00,-5.4,-19.6,30.18,NNW,330,6.0,7.0,49,0.00,,---,0.00,VWS V14.01,2014-03-03 07:36:00,
2014-03-03 01:40:00,-6.5,-19.5,30.17,NW,321,3.0,6.0,52,0.00,,---,0.00,VWS V14.01,2014-03-03 07:40:00,
2014-03-03 01:41:00,-5.4,-19.6,30.18,NNW,329,3.0,5.0,49,0.00,,---,0.00,VWS V14.01,2014-03-03 07:41:00,
2014-03-03 01:45:00,-6.8,-19.8,30.17,NW,321,1.0,5.0,52,0.00,,---,0.00,VWS V14.01,2014-03-03 07:45:00,
2014-03-03 01:46:00,-5.6,-19.8,30.18,NNW,329,5.0,5.0,49,0.00,,---,0.00,VWS V14.01,2014-03-03 07:46:00,
2014-03-03 01:50:00,-6.8,-19.8,30.17,NW,321,3.0,5.0,52,0.00,,---,0.00,VWS V14.01,2014-03-03 07:50:00,
2014-03-03 01:51:00,-5.9,-19.7,30.18,NNW,329,4.0,6.0,50,0.00,,---,0.00,VWS V14.01,2014-03-03 07:51:00,
2014-03-03 01:55:00,-7.0,-20.0,30.17,NW,321,4.0,5.0,52,0.00,,---,0.00,VWS V14.01,2014-03-03 07:55:00,
2014-03-03 01:56:00,-6.1,-19.9,30.18,NW,326,6.0,6.0,50,0.00,,---,0.00,VWS V14.01,2014-03-03 07:56:00,
2014-03-03 02:00:00,-7.0,-19.6,30.17,NW,321,3.0,5.0,53,0.00,,---,0.00,VWS V14.01,2014-03-03 08:00:00,
2014-03-03 02:01:00,-6.1,-19.9,30.18,NW,321,5.0,7.0,50,0.00,,---,0.00,VWS V14.01,2014-03-03 08:01:00,
2014-03-03 02:05:00,-7.2,-19.8,30.17,NW,321,4.0,5.0,53,0.00,,---,0.00,VWS V14.01,2014-03-03 08:05:00,
2014-03-03 02:06:00,-6.1,-19.9,30.18,NW,322,4.0,6.0,50,0.00,,---,0.00,VWS V14.01,2014-03-03 08:06:00,
2014-03-03 02:10:00,-7.2,-19.8,30.17,NW,321,5.0,5.0,53,0.00,,---,0.00,VWS V14.01,2014-03-03 08:10:00,
2014-03-03 02:11:00,-6.3,-20.1,30.19,NW,310,5.0,7.0,50,0.00,,---,0.00,VWS V14.01,2014-03-03 08:11:00,
2014-03-03 02:15:00,-7.2,-19.8,30.17,NW,321,5.0,6.0,53,0.00,,---,0.00,VWS V14.01,2014-03-03 08:15:00,
2014-03-03 02:16:00,-6.3,-19.7,30.19,NW,315,4.0,6.0,51,0.00,,---,0.00,VWS V14.01,2014-03-03 08:16:00,
2014-03-03 02:20:00,-7.2,-19.4,30.17,NW,321,5.0,6.0,54,0.00,,---,0.00,VWS V14.01,2014-03-03 08:20:00,
2014-03-03 02:21:00,-6.3,-19.7,30.19,NW,319,5.0,7.0,51,0.00,,---,0.00,VWS V14.01,2014-03-03 08:21:00,
2014-03-03 02:25:00,-7.2,-19.8,30.17,NW,317,3.0,6.0,53,0.00,,---,0.00,VWS V14.01,2014-03-03 08:25:00,
2014-03-03 02:26:00,-6.3,-19.7,30.17,NW,315,6.0,7.0,51,0.00,,---,0.00,VWS V14.01,2014-03-03 08:26:00,
2014-03-03 02:30:00,-7.2,-19.8,30.17,NW,317,4.0,6.0,53,0.00,,---,0.00,VWS V14.01,2014-03-03 08:30:00,
2014-03-03 02:31:00,-6.3,-19.7,30.17,NW,318,6.0,6.0,51,0.00,,---,0.00,VWS V14.01,2014-03-03 08:31:00,
2014-03-03 02:35:00,-7.5,-19.7,30.17,NW,319,4.0,6.0,54,0.00,,---,0.00,VWS V14.01,2014-03-03 08:35:00,
2014-03-03 02:36:00,-6.5,-19.9,30.17,NW,325,5.0,7.0,51,0.00,,---,0.00,VWS V14.01,2014-03-03 08:36:00,
2014-03-03 02:40:00,-7.5,-19.7,30.17,NW,319,4.0,4.0,54,0.00,,---,0.00,VWS V14.01,2014-03-03 08:40:00,
2014-03-03 02:41:00,-6.5,-19.5,30.17,NW,319,5.0,7.0,52,0.00,,---,0.00,VWS V14.01,2014-03-03 08:41:00,
2014-03-03 02:45:00,-7.5,-19.7,30.17,NW,319,3.0,5.0,54,0.00,,---,0.00,VWS V14.01,2014-03-03 08:45:00,
2014-03-03 02:46:00,-6.5,-19.5,30.17,NW,321,4.0,5.0,52,0.00,,---,0.00,VWS V14.01,2014-03-03 08:46:00,
2014-03-03 02:50:00,-7.5,-19.7,30.17,NW,319,2.0,5.0,54,0.00,,---,0.00,VWS V14.01,2014-03-03 08:50:00,
2014-03-03 02:51:00,-6.5,-19.5,30.17,NW,321,4.0,5.0,52,0.00,,---,0.00,VWS V14.01,2014-03-03 08:51:00,
2014-03-03 02:55:00,-7.5,-19.7,30.17,NW,319,1.0,4.0,54,0.00,,---,0.00,VWS V14.01,2014-03-03 08:55:00,
2014-03-03 02:56:00,-6.8,-19.8,30.17,NW,321,4.0,4.0,52,0.00,,---,0.00,VWS V14.01,2014-03-03 08:56:00,
2014-03-03 03:00:00,-7.7,-19.9,30.18,NW,319,3.0,4.0,54,0.00,,---,0.00,VWS V14.01,2014-03-03 09:00:00,
2014-03-03 03:01:00,-6.8,-19.8,30.17,NW,321,3.0,5.0,52,0.00,,---,0.00,VWS V14.01,2014-03-03 09:01:00,
2014-03-03 03:05:00,-7.9,-19.8,30.18,NW,319,2.0,5.0,55,0.00,,---,0.00,VWS V14.01,2014-03-03 09:05:00,
2014-03-03 03:06:00,-7.0,-19.6,30.17,NW,321,2.0,5.0,53,0.00,,---,0.00,VWS V14.01,2014-03-03 09:06:00,
2014-03-03 03:10:00,-7.9,-19.8,30.18,NW,319,3.0,4.0,55,0.00,,---,0.00,VWS V14.01,2014-03-03 09:10:00,
2014-03-03 03:11:00,-7.2,-19.8,30.17,NW,321,4.0,4.0,53,0.00,,---,0.00,VWS V14.01,2014-03-03 09:11:00,
2014-03-03 03:15:00,-7.9,-19.8,30.19,NW,319,4.0,4.0,55,0.00,,---,0.00,VWS V14.01,2014-03-03 09:15:00,
2014-03-03 03:16:00,-7.2,-19.8,30.17,NW,321,4.0,5.0,53,0.00,,---,0.00,VWS V14.01,2014-03-03 09:16:00,
2014-03-03 03:20:00,-7.9,-19.8,30.19,NW,319,2.0,5.0,55,0.00,,---,0.00,VWS V14.01,2014-03-03 09:20:00,
2014-03-03 03:21:00,-7.2,-19.8,30.17,NW,321,5.0,6.0,53,0.00,,---,0.00,VWS V14.01,2014-03-03 09:21:00,
2014-03-03 03:25:00,-8.2,-20.0,30.19,NW,319,1.0,3.0,55,0.00,,---,0.00,VWS V14.01,2014-03-03 09:25:00,
2014-03-03 03:26:00,-7.2,-19.8,30.17,NW,321,5.0,5.0,53,0.00,,---,0.00,VWS V14.01,2014-03-03 09:26:00,
2014-03-03 03:30:00,-8.2,-20.0,30.19,NW,319,2.0,2.0,55,0.00,,---,0.00,VWS V14.01,2014-03-03 09:30:00,
2014-03-03 03:31:00,-7.2,-19.8,30.17,NW,317,5.0,6.0,53,0.00,,---,0.00,VWS V14.01,2014-03-03 09:31:00,
2014-03-03 03:35:00,-8.2,-20.0,30.19,NW,319,1.0,2.0,55,0.00,,---,0.00,VWS V14.01,2014-03-03 09:35:00,
2014-03-03 03:36:00,-7.2,-19.8,30.17,NW,317,5.0,5.0,53,0.00,,---,0.00,VWS V14.01,2014-03-03 09:36:00,
2014-03-03 03:40:00,-8.4,-20.2,30.19,NW,319,2.0,2.0,55,0.00,,---,0.00,VWS V14.01,2014-03-03 09:40:00,
2014-03-03 03:41:00,-7.2,-19.4,30.17,NW,318,4.0,6.0,54,0.00,,---,0.00,VWS V14.01,2014-03-03 09:41:00,
2014-03-03 03:45:00,-8.6,-20.1,30.19,NW,319,2.0,4.0,56,0.00,,---,0.00,VWS V14.01,2014-03-03 09:45:00,
2014-03-03 03:46:00,-7.5,-19.7,30.17,NW,319,2.0,4.0,54,0.00,,---,0.00,VWS V14.01,2014-03-03 09:46:00,
2014-03-03 03:50:00,-8.6,-20.1,30.19,NW,319,4.0,5.0,56,0.00,,---,0.00,VWS V14.01,2014-03-03 09:50:00,
2014-03-03 03:51:00,-7.5,-19.7,30.17,NW,319,4.0,5.0,54,0.00,,---,0.00,VWS V14.01,2014-03-03 09:51:00,
2014-03-03 03:55:00,-8.6,-19.7,30.19,NW,319,4.0,5.0,57,0.00,,---,0.00,VWS V14.01,2014-03-03 09:55:00,
2014-03-03 03:56:00,-7.5,-19.7,30.17,NW,319,3.0,5.0,54,0.00,,---,0.00,VWS V14.01,2014-03-03 09:56:00,
2014-03-03 04:00:00,-8.4,-19.5,30.19,NW,319,2.0,5.0,57,0.00,,---,0.00,VWS V14.01,2014-03-03 10:00:00,
2014-03-03 04:01:00,-7.5,-19.7,30.17,NW,319,2.0,4.0,54,0.00,,---,0.00,VWS V14.01,2014-03-03 10:01:00,
2014-03-03 04:05:00,-8.2,-19.3,30.19,NW,319,3.0,5.0,57,0.00,,---,0.00,VWS V14.01,2014-03-03 10:05:00,
2014-03-03 04:06:00,-7.5,-19.7,30.17,NW,319,2.0,3.0,54,0.00,,---,0.00,VWS V14.01,2014-03-03 10:06:00,
2014-03-03 04:10:00,-8.2,-19.3,30.19,NW,319,1.0,5.0,57,0.00,,---,0.00,VWS V14.01,2014-03-03 10:10:00,
2014-03-03 04:11:00,-7.7,-19.9,30.18,NW,319,2.0,4.0,54,0.00,,---,0.00,VWS V14.01,2014-03-03 10:11:00,
2014-03-03 04:15:00,-8.2,-19.3,30.19,NW,319,3.0,4.0,57,0.00,,---,0.00,VWS V14.01,2014-03-03 10:15:00,
2014-03-03 04:16:00,-7.9,-19.8,30.18,NW,319,2.0,4.0,55,0.00,,---,0.00,VWS V14.01,2014-03-03 10:16:00,
2014-03-03 04:20:00,-7.9,-19.1,30.19,NW,319,3.0,5.0,57,0.00,,---,0.00,VWS V14.01,2014-03-03 10:20:00,
2014-03-03 04:21:00,-7.9,-19.8,30.18,NW,319,1.0,4.0,55,0.00,,---,0.00,VWS V14.01,2014-03-03 10:21:00,
2014-03-03 04:25:00,-7.9,-19.1,30.19,NW,319,4.0,5.0,57,0.00,,---,0.00,VWS V14.01,2014-03-03 10:25:00,
2014-03-03 04:26:00,-7.9,-19.8,30.19,NW,319,2.0,5.0,55,0.00,,---,0.00,VWS V14.01,2014-03-03 10:26:00,
2014-03-03 04:30:00,-8.2,-19.3,30.19,NW,319,4.0,5.0,57,0.00,,---,0.00,VWS V14.01,2014-03-03 10:30:00,
2014-03-03 04:31:00,-7.9,-19.8,30.19,NW,319,1.0,2.0,55,0.00,,---,0.00,VWS V14.01,2014-03-03 10:31:00,
2014-03-03 04:35:00,-8.2,-19.3,30.19,NW,319,4.0,5.0,57,0.00,,---,0.00,VWS V14.01,2014-03-03 10:35:00,
2014-03-03 04:36:00,-8.2,-20.0,30.19,NW,319,2.0,2.0,55,0.00,,---,0.00,VWS V14.01,2014-03-03 10:36:00,
2014-03-03 04:40:00,-8.2,-19.3,30.19,NW,319,2.0,4.0,57,0.00,,---,0.00,VWS V14.01,2014-03-03 10:40:00,
2014-03-03 04:41:00,-8.2,-20.0,30.19,NW,319,1.0,2.0,55,0.00,,---,0.00,VWS V14.01,2014-03-03 10:41:00,
2014-03-03 04:45:00,-8.2,-19.0,30.19,NW,319,2.0,5.0,58,0.00,,---,0.00,VWS V14.01,2014-03-03 10:45:00,
2014-03-03 04:46:00,-8.4,-20.2,30.19,NW,319,1.0,2.0,55,0.00,,---,0.00,VWS V14.01,2014-03-03 10:46:00,
2014-03-03 04:50:00,-7.9,-18.7,30.19,NW,319,4.0,5.0,58,0.00,,---,0.00,VWS V14.01,2014-03-03 10:50:00,
2014-03-03 04:51:00,-8.6,-20.1,30.19,NW,319,2.0,2.0,56,0.00,,---,0.00,VWS V14.01,2014-03-03 10:51:00,
2014-03-03 04:55:00,-7.9,-19.1,30.19,NW,319,2.0,5.0,57,0.00,,---,0.00,VWS V14.01,2014-03-03 10:55:00,
2014-03-03 04:56:00,-8.6,-20.1,30.19,NW,319,2.0,4.0,56,0.00,,---,0.00,VWS V14.01,2014-03-03 10:56:00,
2014-03-03 05:00:00,-8.2,-19.3,30.19,NW,319,2.0,4.0,57,0.00,,---,0.00,VWS V14.01,2014-03-03 11:00:00,
2014-03-03 05:01:00,-8.6,-19.7,30.19,NW,319,4.0,5.0,57,0.00,,---,0.00,VWS V14.01,2014-03-03 11:01:00,
2014-03-03 05:05:00,-8.2,-19.0,30.19,NW,319,4.0,5.0,58,0.00,,---,0.00,VWS V14.01,2014-03-03 11:05:00,
2014-03-03 05:06:00,-8.4,-19.5,30.19,NW,319,2.0,5.0,57,0.00,,---,0.00,VWS V14.01,2014-03-03 11:06:00,
2014-03-03 05:10:00,-8.2,-19.0,30.19,NW,319,2.0,5.0,58,0.00,,---,0.00,VWS V14.01,2014-03-03 11:10:00,
2014-03-03 05:11:00,-8.4,-19.5,30.19,NW,319,4.0,5.0,57,0.00,,---,0.00,VWS V14.01,2014-03-03 11:11:00,
2014-03-03 05:15:00,-8.2,-19.0,30.20,NW,319,4.0,5.0,58,0.00,,---,0.00,VWS V14.01,2014-03-03 11:15:00,
2014-03-03 05:16:00,-8.2,-19.3,30.19,NW,319,2.0,5.0,57,0.00,,---,0.00,VWS V14.01,2014-03-03 11:16:00,
2014-03-03 05:20:00,-8.2,-19.0,30.20,NW,319,3.0,5.0,58,0.00,,---,0.00,VWS V14.01,2014-03-03 11:20:00,
2014-03-03 05:21:00,-8.2,-19.3,30.19,NW,319,4.0,4.0,57,0.00,,---,0.00,VWS V14.01,2014-03-03 11:21:00,
2014-03-03 05:25:00,-8.2,-19.0,30.20,NW,319,4.0,5.0,58,0.00,,---,0.00,VWS V14.01,2014-03-03 11:25:00,
2014-03-03 05:26:00,-7.9,-19.1,30.19,NW,319,4.0,4.0,57,0.00,,---,0.00,VWS V14.01,2014-03-03 11:26:00,
2014-03-03 05:30:00,-7.9,-18.7,30.20,NW,321,4.0,5.0,58,0.00,,---,0.00,VWS V14.01,2014-03-03 11:30:00,
2014-03-03 05:31:00,-7.9,-19.1,30.19,NW,319,2.0,5.0,57,0.00,,---,0.00,VWS V14.01,2014-03-03 11:31:00,
2014-03-03 05:35:00,-7.9,-18.7,30.20,NW,322,2.0,4.0,58,0.00,,---,0.00,VWS V14.01,2014-03-03 11:35:00,
2014-03-03 05:36:00,-7.9,-19.1,30.19,NW,319,2.0,4.0,57,0.00,,---,0.00,VWS V14.01,2014-03-03 11:36:00,
2014-03-03 05:40:00,-7.9,-18.7,30.20,NW,322,4.0,5.0,58,0.00,,---,0.00,VWS V14.01,2014-03-03 11:40:00,
2014-03-03 05:41:00,-8.2,-19.3,30.19,NW,319,4.0,5.0,57,0.00,,---,0.00,VWS V14.01,2014-03-03 11:41:00,
2014-03-03 05:45:00,-8.2,-19.3,30.19,NW,319,4.0,4.0,57,0.00,,---,0.00,VWS V14.01,2014-03-03 11:45:00,
2014-03-03 05:50:00,-8.2,-19.3,30.19,NW,319,4.0,5.0,57,0.00,,---,0.00,VWS V14.01,2014-03-03 11:50:00,
2014-03-03 05:55:00,-8.2,-19.0,30.19,NW,319,3.0,4.0,58,0.00,,---,0.00,VWS V14.01,2014-03-03 11:55:00,
2014-03-03 06:00:00,-7.9,-18.7,30.19,NW,319,4.0,5.0,58,0.00,,---,0.00,VWS V14.01,2014-03-03 12:00:00,
2014-03-03 06:05:00,-7.9,-19.1,30.19,NW,319,2.0,4.0,57,0.00,,---,0.00,VWS V14.01,2014-03-03 12:05:00,
2014-03-03 06:10:00,-8.2,-19.0,30.19,NW,319,4.0,5.0,58,0.00,,---,0.00,VWS V14.01,2014-03-03 12:10:00,
2014-03-03 06:15:00,-8.2,-19.0,30.19,NW,319,2.0,4.0,58,0.00,,---,0.00,VWS V14.01,2014-03-03 12:15:00,
2014-03-03 06:20:00,-8.2,-19.0,30.19,NW,319,4.0,5.0,58,0.00,,---,0.00,VWS V14.01,2014-03-03 12:20:00,
2014-03-03 06:25:00,-8.2,-19.0,30.20,NW,319,4.0,5.0,58,0.00,,---,0.00,VWS V14.01,2014-03-03 12:25:00,
2014-03-03 06:30:00,-8.2,-19.0,30.20,NW,319,3.0,5.0,58,0.00,,---,0.00,VWS V14.01,2014-03-03 12:30:00,
2014-03-03 06:35:00,-7.9,-18.7,30.20,NW,319,4.0,5.0,58,0.00,,---,0.00,VWS V14.01,2014-03-03 12:35:00,
2014-03-03 06:40:00,-7.9,-18.7,30.20,NW,322,2.0,4.0,58,0.00,,---,0.00,VWS V14.01,2014-03-03 12:40:00,
2014-03-03 06:45:00,-7.9,-18.7,30.20,NW,322,3.0,4.0,58,0.00,,---,0.00,VWS V14.01,2014-03-03 12:45:00,
2014-03-03 06:50:00,-7.9,-18.7,30.20,NW,322,3.0,5.0,58,0.00,,---,0.00,VWS V14.01,2014-03-03 12:50:00,
2014-03-03 06:55:00,-7.9,-18.7,30.20,NW,322,4.0,4.0,58,0.00,,---,0.00,VWS V14.01,2014-03-03 12:55:00,
2014-03-03 07:00:00,-7.9,-18.7,30.20,NW,322,5.0,5.0,58,0.00,,---,0.00,VWS V14.01,2014-03-03 13:00:00,
2014-03-03 07:05:00,-7.7,-18.5,30.20,NW,324,4.0,5.0,58,0.00,,---,0.00,VWS V14.01,2014-03-03 13:05:00,
2014-03-03 07:10:00,-7.7,-18.5,30.20,NW,326,4.0,5.0,58,0.00,,---,0.00,VWS V14.01,2014-03-03 13:10:00,
2014-03-03 07:15:00,-7.5,-18.4,30.20,NNW,328,3.0,5.0,58,0.00,,---,0.00,VWS V14.01,2014-03-03 13:15:00,
2014-03-03 07:18:00,-7.2,-18.1,30.20,NNW,328,2.0,6.0,58,0.00,,---,0.00,VWS V14.01,2014-03-03 13:18:00,
2014-03-03 07:20:00,-2.8,-15.3,30.22,NNW,333,2.0,5.0,54,0.00,,---,0.00,VWS V14.01,2014-03-03 13:20:00,
2014-03-03 07:23:00,-7.2,-18.1,30.21,NNW,328,4.0,4.0,58,0.00,,---,0.00,VWS V14.01,2014-03-03 13:23:00,
2014-03-03 07:25:00,-2.4,-15.3,30.22,North,349,4.0,5.0,53,0.00,,---,0.00,VWS V14.01,2014-03-03 13:25:00,
2014-03-03 07:28:00,-7.0,-18.2,30.21,NNW,328,2.0,5.0,57,0.00,,---,0.00,VWS V14.01,2014-03-03 13:28:00,
2014-03-03 07:30:00,-1.8,-14.7,30.22,North,352,2.0,5.0,53,0.00,,---,0.00,VWS V14.01,2014-03-03 13:30:00,
2014-03-03 07:33:00,-6.8,-18.0,30.21,NNW,328,4.0,4.0,57,0.00,,---,0.00,VWS V14.01,2014-03-03 13:33:00,
2014-03-03 07:35:00,-1.2,-14.6,30.22,North,356,5.0,5.0,52,0.00,,---,0.00,VWS V14.01,2014-03-03 13:35:00,
2014-03-03 07:38:00,-6.5,-17.7,30.21,NNW,328,2.0,4.0,57,0.00,,---,0.00,VWS V14.01,2014-03-03 13:38:00,
2014-03-03 07:40:00,-0.8,-14.2,30.22,North,356,2.0,5.0,52,0.00,,---,0.00,VWS V14.01,2014-03-03 13:40:00,
2014-03-03 07:43:00,-6.3,-17.9,30.21,NNW,328,4.0,4.0,56,0.00,,---,0.00,VWS V14.01,2014-03-03 13:43:00,
2014-03-03 07:45:00,-0.2,-14.4,30.23,North,356,2.0,2.0,50,0.00,,---,0.00,VWS V14.01,2014-03-03 13:45:00,
2014-03-03 07:48:00,-6.1,-17.7,30.21,NNW,328,1.0,4.0,56,0.00,,---,0.00,VWS V14.01,2014-03-03 13:48:00,
2014-03-03 07:50:00,0.1,-14.5,30.23,North,356,1.0,4.0,49,0.00,,---,0.00,VWS V14.01,2014-03-03 13:50:00,
2014-03-03 07:53:00,-5.9,-17.9,30.22,NNW,328,2.0,3.0,55,0.00,,---,0.00,VWS V14.01,2014-03-03 13:53:00,
2014-03-03 07:55:00,0.9,-13.4,30.23,North,356,3.0,4.0,50,0.00,,---,0.00,VWS V14.01,2014-03-03 13:55:00,
2014-03-03 07:58:00,-5.4,-17.4,30.22,NNW,328,1.0,3.0,55,0.00,,---,0.00,VWS V14.01,2014-03-03 13:58:00,
2014-03-03 08:00:00,1.1,-14.0,30.22,North,356,1.0,3.0,48,0.00,,---,0.00,VWS V14.01,2014-03-03 14:00:00,
2014-03-03 08:03:00,-4.8,-16.8,30.22,NNW,328,2.0,2.0,55,0.00,,---,0.00,VWS V14.01,2014-03-03 14:03:00,
2014-03-03 08:05:00,1.5,-13.2,30.22,North,356,1.0,3.0,49,0.00,,---,0.00,VWS V14.01,2014-03-03 14:05:00,
2014-03-03 08:08:00,-4.1,-16.5,30.22,NNW,329,2.0,4.0,54,0.00,,---,0.00,VWS V14.01,2014-03-03 14:08:00,
2014-03-03 08:10:00,2.0,-13.2,30.22,North,356,0.0,2.0,48,0.00,,---,0.00,VWS V14.01,2014-03-03 14:10:00,
2014-03-03 08:13:00,-3.7,-16.2,30.22,NNW,329,1.0,4.0,54,0.00,,---,0.00,VWS V14.01,2014-03-03 14:13:00,
2014-03-03 08:15:00,2.8,-13.7,30.23,North,356,1.0,2.0,45,0.00,,---,0.00,VWS V14.01,2014-03-03 14:15:00,
2014-03-03 08:18:00,-3.5,-16.3,30.22,NNW,329,2.0,4.0,53,0.00,,---,0.00,VWS V14.01,2014-03-03 14:18:00,
2014-03-03 08:20:00,3.5,-12.6,30.23,North,356,1.0,3.0,46,0.00,,---,0.00,VWS V14.01,2014-03-03 14:20:00,
2014-03-03 08:23:00,-3.1,-15.6,30.22,NNW,329,3.0,4.0,54,0.00,,---,0.00,VWS V14.01,2014-03-03 14:23:00,
2014-03-03 08:25:00,3.7,-13.3,30.23,North,356,1.0,5.0,44,0.00,,---,0.00,VWS V14.01,2014-03-03 14:25:00,
2014-03-03 08:28:00,-2.8,-15.7,30.22,NNW,332,5.0,5.0,53,0.00,,---,0.00,VWS V14.01,2014-03-03 14:28:00,
2014-03-03 08:30:00,3.9,-12.7,30.22,North,11,4.0,5.0,45,0.00,,---,0.00,VWS V14.01,2014-03-03 14:30:00,
2014-03-03 08:33:00,-2.4,-15.3,30.22,North,349,4.0,5.0,53,0.00,,---,0.00,VWS V14.01,2014-03-03 14:33:00,
2014-03-03 08:35:00,4.1,-12.1,30.22,NNE,12,4.0,6.0,46,0.00,,---,0.00,VWS V14.01,2014-03-03 14:35:00,
2014-03-03 08:38:00,-1.8,-14.7,30.22,North,352,5.0,5.0,53,0.00,,---,0.00,VWS V14.01,2014-03-03 14:38:00,
2014-03-03 08:40:00,4.3,-12.3,30.22,NNE,13,2.0,5.0,45,0.00,,---,0.00,VWS V14.01,2014-03-03 14:40:00,
2014-03-03 08:43:00,-1.4,-14.8,30.22,North,356,4.0,5.0,52,0.00,,---,0.00,VWS V14.01,2014-03-03 14:43:00,
2014-03-03 08:45:00,4.7,-10.7,30.22,NNE,13,0.0,3.0,48,0.00,,---,0.00,VWS V14.01,2014-03-03 14:45:00,
2014-03-03 08:48:00,-0.8,-14.2,30.22,North,356,4.0,5.0,52,0.00,,---,0.00,VWS V14.01,2014-03-03 14:48:00,
2014-03-03 08:50:00,5.4,-11.8,30.22,NNE,13,0.0,5.0,44,0.00,,---,0.00,VWS V14.01,2014-03-03 14:50:00,
2014-03-03 08:53:00,-0.4,-14.6,30.23,North,356,0.0,2.0,50,0.00,,---,0.00,VWS V14.01,2014-03-03 14:53:00,
2014-03-03 08:55:00,6.0,-12.1,30.22,NNE,14,1.0,2.0,42,0.00,,---,0.00,VWS V14.01,2014-03-03 14:55:00,
2014-03-03 08:58:00,0.1,-14.5,30.23,North,356,1.0,4.0,49,0.00,,---,0.00,VWS V14.01,2014-03-03 14:58:00,
2014-03-03 09:00:00,6.5,-11.7,30.23,ESE,102,5.0,6.0,42,0.00,,---,0.00,VWS V14.01,2014-03-03 15:00:00,
2014-03-03 09:03:00,0.7,-14.0,30.23,North,356,1.0,4.0,49,0.00,,---,0.00,VWS V14.01,2014-03-03 15:03:00,
2014-03-03 09:05:00,6.5,-11.2,30.23,SE,124,7.0,7.0,43,0.00,,---,0.00,VWS V14.01,2014-03-03 15:05:00,
2014-03-03 09:07:00,1.1,-14.0,30.22,North,356,3.0,3.0,48,0.00,,---,0.00,VWS V14.01,2014-03-03 15:07:00,
2014-03-03 09:10:00,6.3,-10.9,30.23,ESE,123,5.0,7.0,44,0.00,,---,0.00,VWS V14.01,2014-03-03 15:10:00,
2014-03-03 09:12:00,1.5,-13.2,30.22,North,356,2.0,2.0,49,0.00,,---,0.00,VWS V14.01,2014-03-03 15:12:00,
2014-03-03 09:15:00,6.3,-10.9,30.22,ESE,121,3.0,5.0,44,0.00,,---,0.00,VWS V14.01,2014-03-03 15:15:00,
2014-03-03 09:17:00,1.8,-13.4,30.22,North,356,0.0,2.0,48,0.00,,---,0.00,VWS V14.01,2014-03-03 15:17:00,
2014-03-03 09:20:00,6.3,-11.4,30.22,ESE,122,2.0,6.0,43,0.00,,---,0.00,VWS V14.01,2014-03-03 15:20:00,
2014-03-03 09:22:00,2.6,-13.9,30.23,North,356,0.0,1.0,45,0.00,,---,0.00,VWS V14.01,2014-03-03 15:22:00,
2014-03-03 09:25:00,6.3,-11.4,30.22,ESE,121,5.0,5.0,43,0.00,,---,0.00,VWS V14.01,2014-03-03 15:25:00,
2014-03-03 09:27:00,3.5,-12.6,30.23,North,356,1.0,3.0,46,0.00,,---,0.00,VWS V14.01,2014-03-03 15:27:00,
2014-03-03 09:30:00,6.3,-10.9,30.22,SE,124,6.0,7.0,44,0.00,,---,0.00,VWS V14.01,2014-03-03 15:30:00,
2014-03-03 09:32:00,3.7,-12.9,30.23,North,356,1.0,4.0,45,0.00,,---,0.00,VWS V14.01,2014-03-03 15:32:00,
2014-03-03 09:35:00,6.3,-10.1,30.22,ESE,117,7.0,7.0,46,0.00,,---,0.00,VWS V14.01,2014-03-03 15:35:00,
2014-03-03 09:37:00,3.9,-12.7,30.22,North,356,2.0,4.0,45,0.00,,---,0.00,VWS V14.01,2014-03-03 15:37:00,
2014-03-03 09:40:00,6.3,-10.1,30.22,ESE,113,5.0,7.0,46,0.00,,---,0.00,VWS V14.01,2014-03-03 15:40:00,
2014-03-03 09:42:00,4.1,-12.1,30.22,NNE,12,3.0,6.0,46,0.00,,---,0.00,VWS V14.01,2014-03-03 15:42:00,
2014-03-03 09:45:00,6.5,-9.9,30.21,ESE,115,4.0,7.0,46,0.00,,---,0.00,VWS V14.01,2014-03-03 15:45:00,
2014-03-03 09:47:00,4.3,-12.3,30.22,NNE,13,2.0,5.0,45,0.00,,---,0.00,VWS V14.01,2014-03-03 15:47:00,
2014-03-03 09:50:00,6.9,-9.1,30.21,ESE,110,5.0,7.0,47,0.00,,---,0.00,VWS V14.01,2014-03-03 15:50:00,
2014-03-03 09:52:00,4.7,-10.7,30.22,NNE,13,1.0,3.0,48,0.00,,---,0.00,VWS V14.01,2014-03-03 15:52:00,
2014-03-03 09:55:00,7.2,-9.7,30.21,ESE,115,6.0,7.0,45,0.00,,---,0.00,VWS V14.01,2014-03-03 15:55:00,
2014-03-03 09:57:00,5.4,-11.3,30.22,NNE,13,2.0,5.0,45,0.00,,---,0.00,VWS V14.01,2014-03-03 15:57:00,
2014-03-03 10:00:00,7.4,-9.0,30.20,ESE,119,4.0,8.0,46,0.00,,---,0.00,VWS V14.01,2014-03-03 16:00:00,
2014-03-03 10:02:00,6.0,-12.1,30.22,NNE,14,2.0,2.0,42,0.00,,---,0.00,VWS V14.01,2014-03-03 16:02:00,
2014-03-03 10:05:00,7.7,-8.3,30.20,ESE,118,5.0,7.0,47,0.00,,---,0.00,VWS V14.01,2014-03-03 16:05:00,
2014-03-03 10:07:00,6.5,-11.7,30.23,East,101,4.0,6.0,42,0.00,,---,0.00,VWS V14.01,2014-03-03 16:07:00,
2014-03-03 10:10:00,8.6,-7.5,30.20,ESE,115,5.0,6.0,47,0.00,,---,0.00,VWS V14.01,2014-03-03 16:10:00,
2014-03-03 10:12:00,6.5,-11.7,30.23,ESE,106,5.0,6.0,42,0.00,,---,0.00,VWS V14.01,2014-03-03 16:12:00,
2014-03-03 10:15:00,8.8,-7.3,30.20,East,99,5.0,7.0,47,0.00,,---,0.00,VWS V14.01,2014-03-03 16:15:00,
2014-03-03 10:17:00,6.3,-10.9,30.23,ESE,123,5.0,7.0,44,0.00,,---,0.00,VWS V14.01,2014-03-03 16:17:00,
2014-03-03 10:20:00,9.3,-7.3,30.20,ESE,120,5.0,6.0,46,0.00,,---,0.00,VWS V14.01,2014-03-03 16:20:00,
2014-03-03 10:22:00,6.3,-10.9,30.22,ESE,122,3.0,5.0,44,0.00,,---,0.00,VWS V14.01,2014-03-03 16:22:00,
2014-03-03 10:25:00,9.9,-7.6,30.20,SE,141,5.0,8.0,44,0.00,,---,0.00,VWS V14.01,2014-03-03 16:25:00,
2014-03-03 10:27:00,6.3,-11.4,30.22,ESE,122,3.0,6.0,43,0.00,,---,0.00,VWS V14.01,2014-03-03 16:27:00,
2014-03-03 10:30:00,10.0,-7.6,30.20,South,181,7.0,7.0,44,0.00,,---,0.00,VWS V14.01,2014-03-03 16:30:00,
2014-03-03 10:32:00,6.3,-10.9,30.22,ESE,122,4.0,5.0,44,0.00,,---,0.00,VWS V14.01,2014-03-03 16:32:00,
2014-03-03 10:35:00,10.9,-7.2,30.20,SSE,160,4.0,9.0,43,0.00,,---,0.00,VWS V14.01,2014-03-03 16:35:00,
2014-03-03 10:37:00,6.3,-11.9,30.22,ESE,123,5.0,6.0,42,0.00,,---,0.00,VWS V14.01,2014-03-03 16:37:00,
2014-03-03 10:40:00,11.4,-7.7,30.20,South,175,6.0,7.0,41,0.00,,---,0.00,VWS V14.01,2014-03-03 16:40:00,
2014-03-03 10:42:00,6.1,-11.1,30.22,ESE,120,4.0,7.0,44,0.00,,---,0.00,VWS V14.01,2014-03-03 16:42:00,
2014-03-03 10:45:00,12.1,-7.6,30.20,South,174,6.0,7.0,40,0.00,,---,0.00,VWS V14.01,2014-03-03 16:45:00,
2014-03-03 10:47:00,6.3,-10.1,30.22,ESE,113,5.0,7.0,46,0.00,,---,0.00,VWS V14.01,2014-03-03 16:47:00,
2014-03-03 10:50:00,12.8,-7.5,30.20,South,174,2.0,6.0,39,0.00,,---,0.00,VWS V14.01,2014-03-03 16:50:00,
2014-03-03 10:52:00,6.3,-10.1,30.21,ESE,114,2.0,7.0,46,0.00,,---,0.00,VWS V14.01,2014-03-03 16:52:00,
2014-03-03 10:55:00,12.8,-7.5,30.20,SE,126,2.0,7.0,39,0.00,,---,0.00,VWS V14.01,2014-03-03 16:55:00,
2014-03-03 10:57:00,6.9,-8.6,30.21,ESE,112,5.0,7.0,48,0.00,,---,0.00,VWS V14.01,2014-03-03 16:57:00,
2014-03-03 11:00:00,13.1,-7.2,30.19,SW,229,4.0,8.0,39,0.00,,---,0.00,VWS V14.01,2014-03-03 17:00:00,
2014-03-03 11:02:00,7.2,-9.2,30.21,ESE,111,5.0,7.0,46,0.00,,---,0.00,VWS V14.01,2014-03-03 17:02:00,
2014-03-03 11:05:00,13.5,-7.4,30.19,South,190,4.0,8.0,38,0.00,,---,0.00,VWS V14.01,2014-03-03 17:05:00,
2014-03-03 11:07:00,7.4,-9.0,30.20,ESE,115,7.0,7.0,46,0.00,,---,0.00,VWS V14.01,2014-03-03 17:07:00,
2014-03-03 11:10:00,14.0,-6.9,30.19,South,173,4.0,9.0,38,0.00,,---,0.00,VWS V14.01,2014-03-03 17:10:00,
2014-03-03 11:12:00,7.7,-8.8,30.20,ESE,118,5.0,7.0,46,0.00,,---,0.00,VWS V14.01,2014-03-03 17:12:00,
2014-03-03 11:15:00,14.6,-6.4,30.19,SSE,166,7.0,8.0,38,0.00,,---,0.00,VWS V14.01,2014-03-03 17:15:00,
2014-03-03 11:17:00,8.4,-7.7,30.20,ESE,113,4.0,6.0,47,0.00,,---,0.00,VWS V14.01,2014-03-03 17:17:00,
2014-03-03 11:20:00,14.6,-8.1,30.19,SW,217,5.0,8.0,35,0.00,,---,0.00,VWS V14.01,2014-03-03 17:20:00,
2014-03-03 11:22:00,8.8,-7.3,30.20,ESE,110,5.0,7.0,47,0.00,,---,0.00,VWS V14.01,2014-03-03 17:22:00,
2014-03-03 11:25:00,14.6,-7.5,30.19,SW,226,4.0,7.0,36,0.01,,---,0.01,VWS V14.01,2014-03-03 17:25:00,
2014-03-03 11:27:00,9.3,-7.3,30.20,SE,126,6.0,6.0,46,0.00,,---,0.00,VWS V14.01,2014-03-03 17:27:00,
2014-03-03 11:30:00,15.1,-7.6,30.19,SW,225,8.0,9.0,35,0.01,,---,0.01,VWS V14.01,2014-03-03 17:30:00,
2014-03-03 11:32:00,9.7,-7.8,30.20,SSE,159,7.0,8.0,44,0.00,,---,0.00,VWS V14.01,2014-03-03 17:32:00,
2014-03-03 11:35:00,15.1,-7.6,30.19,SSW,207,6.0,8.0,35,0.01,,---,0.01,VWS V14.01,2014-03-03 17:35:00,
2014-03-03 11:37:00,10.0,-7.6,30.20,SE,139,4.0,6.0,44,0.00,,---,0.00,VWS V14.01,2014-03-03 17:37:00,
2014-03-03 11:40:00,15.4,-6.8,30.19,SSW,200,6.0,7.0,36,0.01,,---,0.01,VWS V14.01,2014-03-03 17:40:00,
2014-03-03 11:42:00,10.7,-7.9,30.20,SSW,199,4.0,9.0,42,0.00,,---,0.00,VWS V14.01,2014-03-03 17:42:00,
2014-03-03 11:45:00,15.9,-6.9,30.17,WSW,255,6.0,8.0,35,0.01,,---,0.01,VWS V14.01,2014-03-03 17:45:00,
2014-03-03 11:47:00,11.4,-7.7,30.20,South,174,5.0,6.0,41,0.00,,---,0.00,VWS V14.01,2014-03-03 17:47:00,
2014-03-03 11:50:00,15.6,-6.6,30.17,SSW,194,1.0,10.0,36,0.01,,---,0.01,VWS V14.01,2014-03-03 17:50:00,
2014-03-03 11:52:00,11.9,-7.3,30.20,South,172,5.0,7.0,41,0.00,,---,0.00,VWS V14.01,2014-03-03 17:52:00,
2014-03-03 11:55:00,16.1,-6.1,30.17,SW,224,8.0,8.0,36,0.01,,---,0.01,VWS V14.01,2014-03-03 17:55:00,
2014-03-03 11:57:00,12.6,-7.7,30.20,South,174,4.0,6.0,39,0.00,,---,0.00,VWS V14.01,2014-03-03 17:57:00,
2014-03-03 12:00:00,15.9,-6.9,30.17,SW,218,4.0,10.0,35,0.01,,---,0.01,VWS V14.01,2014-03-03 18:00:00,
2014-03-03 12:02:00,12.8,-6.9,30.20,SE,125,4.0,7.0,40,0.00,,---,0.00,VWS V14.01,2014-03-03 18:02:00,
2014-03-03 12:05:00,15.6,-6.6,30.17,SW,233,5.0,6.0,36,0.01,,---,0.01,VWS V14.01,2014-03-03 18:05:00,
2014-03-03 12:07:00,12.9,-7.9,30.19,SW,233,6.0,8.0,38,0.00,,---,0.00,VWS V14.01,2014-03-03 18:07:00,
2014-03-03 12:10:00,15.2,-7.5,30.17,South,179,6.0,8.0,35,0.01,,---,0.01,VWS V14.01,2014-03-03 18:10:00,
2014-03-03 12:12:00,13.5,-7.9,30.19,South,172,4.0,8.0,37,0.00,,---,0.00,VWS V14.01,2014-03-03 18:12:00,
2014-03-03 12:15:00,14.8,-7.3,30.16,South,178,8.0,9.0,36,0.01,,---,0.01,VWS V14.01,2014-03-03 18:15:00,
2014-03-03 12:17:00,13.8,-7.1,30.19,South,173,6.0,9.0,38,0.00,,---,0.00,VWS V14.01,2014-03-03 18:17:00,
2014-03-03 12:20:00,14.1,-6.8,30.16,SSE,168,8.0,11.0,38,0.01,,---,0.01,VWS V14.01,2014-03-03 18:20:00,
2014-03-03 12:22:00,14.4,-6.6,30.19,South,181,7.0,8.0,38,0.00,,---,0.00,VWS V14.01,2014-03-03 18:22:00,
2014-03-03 12:25:00,14.0,-6.9,30.16,SW,220,6.0,10.0,38,0.01,,---,0.01,VWS V14.01,2014-03-03 18:25:00,
2014-03-03 12:27:00,14.8,-6.8,30.19,SW,217,6.0,8.0,37,0.00,,---,0.00,VWS V14.01,2014-03-03 18:27:00,
2014-03-03 12:30:00,14.0,-7.5,30.16,SW,232,7.0,8.0,37,0.00,,---,0.01,VWS V14.01,2014-03-03 18:30:00,
2014-03-03 12:32:00,14.6,-7.5,30.19,SW,226,4.0,7.0,36,0.01,,---,0.01,VWS V14.01,2014-03-03 18:32:00,
2014-03-03 12:35:00,14.1,-7.4,30.16,SW,216,6.0,9.0,37,0.00,,---,0.01,VWS V14.01,2014-03-03 18:35:00,
2014-03-03 12:37:00,15.1,-5.9,30.19,WSW,245,4.0,9.0,38,0.01,,---,0.01,VWS V14.01,2014-03-03 18:37:00,
2014-03-03 12:40:00,14.1,-6.8,30.16,SW,234,7.0,11.0,38,0.00,,---,0.01,VWS V14.01,2014-03-03 18:40:00,
2014-03-03 12:42:00,15.1,-7.6,30.19,West,259,4.0,8.0,35,0.01,,---,0.01,VWS V14.01,2014-03-03 18:42:00,
2014-03-03 12:45:00,14.4,-6.0,30.16,WSW,237,2.0,10.0,39,0.00,,---,0.01,VWS V14.01,2014-03-03 18:45:00,
2014-03-03 12:47:00,15.2,-6.4,30.19,SSW,202,6.0,7.0,37,0.01,,---,0.01,VWS V14.01,2014-03-03 18:47:00,
2014-03-03 12:50:00,15.2,-6.4,30.16,SW,216,1.0,9.0,37,0.00,,---,0.01,VWS V14.01,2014-03-03 18:50:00,
2014-03-03 12:52:00,15.7,-5.4,30.17,SW,234,5.0,8.0,38,0.01,,---,0.01,VWS V14.01,2014-03-03 18:52:00,
2014-03-03 12:55:00,15.7,-7.1,30.16,WNW,289,4.0,6.0,35,0.00,,---,0.01,VWS V14.01,2014-03-03 18:55:00,
2014-03-03 12:57:00,15.7,-7.1,30.17,SSW,194,4.0,10.0,35,0.01,,---,0.01,VWS V14.01,2014-03-03 18:57:00,
2014-03-03 13:00:00,15.9,-5.8,30.15,SSW,198,7.0,7.0,37,0.00,,---,0.01,VWS V14.01,2014-03-03 19:00:00,
2014-03-03 13:02:00,15.9,-6.3,30.17,SSW,208,5.0,7.0,36,0.01,,---,0.01,VWS V14.01,2014-03-03 19:02:00,
2014-03-03 13:05:00,15.9,-7.5,30.15,WSW,245,6.0,13.0,34,0.01,,---,0.02,VWS V14.01,2014-03-03 19:05:00,
2014-03-03 13:07:00,15.9,-8.1,30.17,SW,234,5.0,10.0,33,0.01,,---,0.01,VWS V14.01,2014-03-03 19:07:00,
2014-03-03 13:10:00,15.4,-6.8,30.15,SW,234,7.0,10.0,36,0.01,,---,0.02,VWS V14.01,2014-03-03 19:10:00,
2014-03-03 13:12:00,15.6,-7.2,30.17,SW,234,1.0,6.0,35,0.01,,---,0.01,VWS V14.01,2014-03-03 19:12:00,
2014-03-03 13:15:00,15.6,-6.6,30.15,SW,221,8.0,12.0,36,0.01,,---,0.02,VWS V14.01,2014-03-03 19:15:00,
2014-03-03 13:17:00,15.4,-7.3,30.17,SSW,210,6.0,8.0,35,0.01,,---,0.01,VWS V14.01,2014-03-03 19:17:00,
2014-03-03 13:20:00,15.7,-6.5,30.15,WSW,247,4.0,11.0,36,0.01,,---,0.02,VWS V14.01,2014-03-03 19:20:00,
2014-03-03 13:22:00,14.9,-6.7,30.16,SSW,200,8.0,9.0,37,0.01,,---,0.01,VWS V14.01,2014-03-03 19:22:00,
2014-03-03 13:25:00,15.7,-5.9,30.15,SW,226,2.0,12.0,37,0.01,,---,0.02,VWS V14.01,2014-03-03 19:25:00,
2014-03-03 13:27:00,14.3,-6.7,30.16,SSW,203,5.0,11.0,38,0.01,,---,0.01,VWS V14.01,2014-03-03 19:27:00,
2014-03-03 13:30:00,15.9,-6.9,30.15,SW,214,2.0,11.0,35,0.01,,---,0.02,VWS V14.01,2014-03-03 19:30:00,
2014-03-03 13:32:00,14.0,-6.4,30.16,SSW,210,9.0,9.0,39,0.01,,---,0.01,VWS V14.01,2014-03-03 19:32:00,
2014-03-03 13:35:00,15.6,-7.2,30.15,SSW,204,4.0,14.0,35,0.01,,---,0.02,VWS V14.01,2014-03-03 19:35:00,
2014-03-03 13:37:00,14.0,-6.9,30.16,West,274,8.0,8.0,38,0.00,,---,0.01,VWS V14.01,2014-03-03 19:37:00,
2014-03-03 13:40:00,15.4,-6.8,30.15,WSW,246,2.0,13.0,36,0.01,,---,0.02,VWS V14.01,2014-03-03 19:40:00,
2014-03-03 13:42:00,14.1,-6.3,30.16,SW,214,6.0,9.0,39,0.00,,---,0.01,VWS V14.01,2014-03-03 19:42:00,
2014-03-03 13:45:00,15.2,-7.5,30.14,SSW,200,4.0,9.0,35,0.01,,---,0.02,VWS V14.01,2014-03-03 19:45:00,
2014-03-03 13:47:00,14.1,-7.4,30.16,SSW,196,5.0,11.0,37,0.00,,---,0.01,VWS V14.01,2014-03-03 19:47:00,
2014-03-03 13:50:00,15.6,-6.6,30.14,WSW,248,9.0,11.0,36,0.01,,---,0.02,VWS V14.01,2014-03-03 19:50:00,
2014-03-03 13:52:00,14.3,-6.7,30.16,SW,236,2.0,10.0,38,0.00,,---,0.01,VWS V14.01,2014-03-03 19:52:00,
2014-03-03 13:55:00,15.9,-8.1,30.14,SSW,197,8.0,10.0,33,0.01,,---,0.02,VWS V14.01,2014-03-03 19:55:00,
2014-03-03 13:57:00,15.1,-5.9,30.16,SW,216,4.0,9.0,38,0.00,,---,0.01,VWS V14.01,2014-03-03 19:57:00,
2014-03-03 14:00:00,16.1,-7.3,30.13,SW,229,2.0,11.0,34,0.01,,---,0.02,VWS V14.01,2014-03-03 20:00:00,
2014-03-03 14:02:00,15.7,-6.5,30.16,WSW,255,6.0,6.0,36,0.00,,---,0.01,VWS V14.01,2014-03-03 20:02:00,
2014-03-03 14:05:00,16.4,-6.4,30.13,WSW,247,4.0,8.0,35,0.01,,---,0.02,VWS V14.01,2014-03-03 20:05:00,
2014-03-03 14:07:00,15.9,-6.3,30.15,WNW,286,5.0,6.0,36,0.00,,---,0.01,VWS V14.01,2014-03-03 20:07:00,
2014-03-03 14:10:00,16.7,-6.2,30.13,SSW,202,6.0,8.0,35,0.00,,---,0.02,VWS V14.01,2014-03-03 20:10:00,
2014-03-03 14:12:00,16.1,-6.1,30.15,SW,234,12.0,13.0,36,0.00,,---,0.01,VWS V14.01,2014-03-03 20:12:00,
2014-03-03 14:15:00,17.2,-5.7,30.14,SSW,202,4.0,7.0,35,0.00,,---,0.02,VWS V14.01,2014-03-03 20:15:00,
2014-03-03 14:17:00,15.6,-5.5,30.15,WSW,238,2.0,10.0,38,0.01,,---,0.02,VWS V14.01,2014-03-03 20:17:00,
2014-03-03 14:20:00,17.0,-6.5,30.14,SW,216,5.0,11.0,34,0.00,,---,0.02,VWS V14.01,2014-03-03 20:20:00,
2014-03-03 14:22:00,15.4,-7.3,30.15,SW,216,6.0,12.0,35,0.01,,---,0.02,VWS V14.01,2014-03-03 20:22:00,
2014-03-03 14:25:00,16.9,-6.6,30.14,WSW,237,8.0,12.0,34,0.00,,---,0.02,VWS V14.01,2014-03-03 20:25:00,
2014-03-03 14:27:00,15.7,-7.1,30.15,SW,219,6.0,11.0,35,0.01,,---,0.02,VWS V14.01,2014-03-03 20:27:00,
2014-03-03 14:30:00,16.9,-7.2,30.13,SW,217,10.0,11.0,33,0.00,,---,0.02,VWS V14.01,2014-03-03 20:30:00,
2014-03-03 14:32:00,15.7,-7.1,30.15,SW,221,5.0,12.0,35,0.01,,---,0.02,VWS V14.01,2014-03-03 20:32:00,
2014-03-03 14:35:00,16.9,-7.2,30.13,South,181,5.0,10.0,33,0.00,,---,0.02,VWS V14.01,2014-03-03 20:35:00,
2014-03-03 14:37:00,15.9,-6.9,30.15,SW,233,6.0,11.0,35,0.01,,---,0.02,VWS V14.01,2014-03-03 20:37:00,
2014-03-03 14:40:00,16.9,-7.2,30.13,SW,230,3.0,10.0,33,0.00,,---,0.02,VWS V14.01,2014-03-03 20:40:00,
2014-03-03 14:42:00,15.6,-7.2,30.15,SSW,210,7.0,14.0,35,0.01,,---,0.02,VWS V14.01,2014-03-03 20:42:00,
2014-03-03 14:45:00,16.9,-6.6,30.13,SSW,205,8.0,9.0,34,0.00,,---,0.02,VWS V14.01,2014-03-03 20:45:00,
2014-03-03 14:47:00,15.4,-5.7,30.15,WSW,246,4.0,13.0,38,0.01,,---,0.02,VWS V14.01,2014-03-03 20:47:00,
2014-03-03 14:50:00,16.5,-7.0,30.13,SSW,207,5.0,11.0,34,0.00,,---,0.02,VWS V14.01,2014-03-03 20:50:00,
2014-03-03 14:52:00,15.2,-7.5,30.15,SSW,199,4.0,9.0,35,0.01,,---,0.02,VWS V14.01,2014-03-03 20:52:00,
2014-03-03 14:55:00,16.5,-7.6,30.13,WSW,240,9.0,12.0,33,0.00,,---,0.02,VWS V14.01,2014-03-03 20:55:00,
2014-03-03 14:57:00,15.6,-6.6,30.14,SW,217,5.0,11.0,36,0.01,,---,0.02,VWS V14.01,2014-03-03 20:57:00,
2014-03-03 15:00:00,16.5,-7.6,30.13,SSW,210,7.0,10.0,33,0.00,,---,0.02,VWS V14.01,2014-03-03 21:00:00,
2014-03-03 15:02:00,15.9,-7.5,30.14,SW,219,6.0,10.0,34,0.01,,---,0.02,VWS V14.01,2014-03-03 21:02:00,
2014-03-03 15:05:00,15.7,-8.9,30.13,WSW,250,2.0,11.0,32,0.00,,---,0.02,VWS V14.01,2014-03-03 21:05:00,
2014-03-03 15:07:00,16.1,-7.3,30.14,SW,221,7.0,11.0,34,0.01,,---,0.02,VWS V14.01,2014-03-03 21:07:00,
2014-03-03 15:10:00,14.9,-8.4,30.13,SW,228,4.0,8.0,34,0.00,,---,0.02,VWS V14.01,2014-03-03 21:10:00,
2014-03-03 15:12:00,16.4,-6.4,30.13,WSW,248,8.0,8.0,35,0.01,,---,0.02,VWS V14.01,2014-03-03 21:12:00,
2014-03-03 15:15:00,14.1,-7.9,30.13,WSW,237,2.0,9.0,36,0.00,,---,0.02,VWS V14.01,2014-03-03 21:15:00,
2014-03-03 15:17:00,16.7,-6.2,30.13,SW,230,6.0,7.0,35,0.00,,---,0.02,VWS V14.01,2014-03-03 21:17:00,
2014-03-03 15:20:00,13.8,-7.1,30.13,WSW,240,7.0,7.0,38,0.00,,---,0.02,VWS V14.01,2014-03-03 21:20:00,
2014-03-03 15:22:00,17.2,-6.3,30.13,West,262,5.0,7.0,34,0.00,,---,0.02,VWS V14.01,2014-03-03 21:22:00,
2014-03-03 15:25:00,13.5,-7.4,30.13,WSW,240,9.0,11.0,38,0.00,,---,0.02,VWS V14.01,2014-03-03 21:25:00,
2014-03-03 15:27:00,17.0,-7.1,30.14,SSW,210,10.0,11.0,33,0.00,,---,0.02,VWS V14.01,2014-03-03 21:27:00,
2014-03-03 15:30:00,12.9,-7.9,30.13,SW,233,2.0,9.0,38,0.00,,---,0.02,VWS V14.01,2014-03-03 21:30:00,
2014-03-03 15:32:00,16.9,-6.0,30.14,SW,226,6.0,12.0,35,0.00,,---,0.02,VWS V14.01,2014-03-03 21:32:00,
2014-03-03 15:35:00,12.8,-8.0,30.13,SW,220,2.0,7.0,38,0.00,,---,0.02,VWS V14.01,2014-03-03 21:35:00,
2014-03-03 15:37:00,16.9,-6.6,30.14,SW,219,6.0,10.0,34,0.00,,---,0.02,VWS V14.01,2014-03-03 21:37:00,
2014-03-03 15:40:00,12.6,-8.2,30.13,SW,217,6.0,7.0,38,0.00,,---,0.02,VWS V14.01,2014-03-03 21:40:00,
2014-03-03 15:42:00,16.9,-7.2,30.13,SW,218,5.0,10.0,33,0.00,,---,0.02,VWS V14.01,2014-03-03 21:42:00,
2014-03-03 15:45:00,12.4,-7.8,30.13,SW,218,3.0,8.0,39,0.00,,---,0.02,VWS V14.01,2014-03-03 21:45:00,
2014-03-03 15:47:00,16.9,-7.2,30.13,SW,230,3.0,10.0,33,0.00,,---,0.02,VWS V14.01,2014-03-03 21:47:00,
2014-03-03 15:50:00,12.3,-7.4,30.13,SW,224,4.0,5.0,40,0.00,,---,0.02,VWS V14.01,2014-03-03 21:50:00,
2014-03-03 15:52:00,16.9,-6.6,30.13,SSW,203,6.0,9.0,34,0.00,,---,0.02,VWS V14.01,2014-03-03 21:52:00,
2014-03-03 15:55:00,12.3,-7.9,30.13,SW,222,1.0,5.0,39,0.00,,---,0.02,VWS V14.01,2014-03-03 21:55:00,
2014-03-03 15:57:00,16.7,-6.8,30.13,SSW,210,6.0,11.0,34,0.00,,---,0.02,VWS V14.01,2014-03-03 21:57:00,
2014-03-03 16:00:00,12.1,-6.6,30.12,SW,221,2.0,5.0,42,0.00,,---,0.02,VWS V14.01,2014-03-03 22:00:00,
2014-03-03 16:02:00,16.5,-7.0,30.13,SW,225,6.0,7.0,34,0.00,,---,0.02,VWS V14.01,2014-03-03 22:02:00,
2014-03-03 16:05:00,11.9,-6.8,30.12,SSW,212,6.0,8.0,42,0.00,,---,0.02,VWS V14.01,2014-03-03 22:05:00,
2014-03-03 16:07:00,16.5,-7.0,30.13,SSW,200,9.0,10.0,34,0.00,,---,0.02,VWS V14.01,2014-03-03 22:07:00,
2014-03-03 16:10:00,11.7,-7.4,30.12,SW,226,3.0,9.0,41,0.00,,---,0.02,VWS V14.01,2014-03-03 22:10:00,
2014-03-03 16:12:00,15.9,-8.7,30.13,WSW,251,5.0,11.0,32,0.00,,---,0.02,VWS V14.01,2014-03-03 22:12:00,
2014-03-03 16:15:00,11.6,-6.6,30.12,SW,225,2.0,5.0,43,0.00,,---,0.02,VWS V14.01,2014-03-03 22:15:00,
2014-03-03 16:17:00,15.1,-8.2,30.13,SW,231,5.0,8.0,34,0.00,,---,0.02,VWS V14.01,2014-03-03 22:17:00,
2014-03-03 16:20:00,11.4,-6.7,30.12,SW,221,4.0,8.0,43,0.00,,---,0.02,VWS V14.01,2014-03-03 22:20:00,
2014-03-03 16:22:00,14.3,-8.3,30.13,WSW,237,2.0,9.0,35,0.00,,---,0.02,VWS V14.01,2014-03-03 22:22:00,
2014-03-03 16:25:00,11.2,-6.4,30.12,SW,223,4.0,6.0,44,0.00,,---,0.02,VWS V14.01,2014-03-03 22:25:00,
2014-03-03 16:27:00,14.0,-6.9,30.13,WSW,237,4.0,5.0,38,0.00,,---,0.02,VWS V14.01,2014-03-03 22:27:00,
2014-03-03 16:30:00,11.1,-6.1,30.12,SW,219,2.0,7.0,45,0.00,,---,0.02,VWS V14.01,2014-03-03 22:30:00,
2014-03-03 16:32:00,13.5,-6.8,30.13,WSW,245,6.0,11.0,39,0.00,,---,0.02,VWS V14.01,2014-03-03 22:32:00,
2014-03-03 16:35:00,10.9,-6.7,30.12,SSW,212,1.0,7.0,44,0.00,,---,0.02,VWS V14.01,2014-03-03 22:35:00,
2014-03-03 16:37:00,12.9,-8.5,30.13,SW,233,2.0,9.0,37,0.00,,---,0.02,VWS V14.01,2014-03-03 22:37:00,
2014-03-03 16:40:00,10.7,-6.9,30.12,SW,218,5.0,8.0,44,0.00,,---,0.02,VWS V14.01,2014-03-03 22:40:00,
2014-03-03 16:42:00,12.8,-8.0,30.13,SW,219,2.0,7.0,38,0.00,,---,0.02,VWS V14.01,2014-03-03 22:42:00,
2014-03-03 16:45:00,10.5,-6.6,30.10,SSW,211,6.0,8.0,45,0.00,,---,0.02,VWS V14.01,2014-03-03 22:45:00,
2014-03-03 16:47:00,12.6,-7.7,30.13,SW,221,5.0,7.0,39,0.00,,---,0.02,VWS V14.01,2014-03-03 22:47:00,
2014-03-03 16:50:00,10.4,-6.3,30.10,SSW,210,6.0,7.0,46,0.00,,---,0.02,VWS V14.01,2014-03-03 22:50:00,
2014-03-03 16:52:00,12.4,-7.8,30.13,SW,219,2.0,8.0,39,0.00,,---,0.02,VWS V14.01,2014-03-03 22:52:00,
2014-03-03 16:55:00,10.4,-6.7,30.10,SW,224,4.0,7.0,45,0.00,,---,0.02,VWS V14.01,2014-03-03 22:55:00,
2014-03-03 16:57:00,12.4,-7.3,30.13,SW,224,4.0,5.0,40,0.00,,---,0.02,VWS V14.01,2014-03-03 22:57:00,
2014-03-03 17:00:00,10.2,-6.0,30.10,SW,221,5.0,7.0,47,0.00,,---,0.02,VWS V14.01,2014-03-03 23:00:00,
2014-03-03 17:02:00,12.3,-6.9,30.13,SW,222,4.0,5.0,41,0.00,,---,0.02,VWS V14.01,2014-03-03 23:02:00,
2014-03-03 17:05:00,10.2,-6.4,30.10,SSW,206,5.0,8.0,46,0.00,,---,0.02,VWS V14.01,2014-03-03 23:05:00,
2014-03-03 17:07:00,12.1,-7.1,30.13,SW,221,1.0,5.0,41,0.00,,---,0.02,VWS V14.01,2014-03-03 23:07:00,
2014-03-03 17:10:00,10.2,-6.0,30.10,South,184,4.0,6.0,47,0.00,,---,0.02,VWS V14.01,2014-03-03 23:10:00,
2014-03-03 17:12:00,11.9,-6.3,30.12,SW,222,2.0,5.0,43,0.00,,---,0.02,VWS V14.01,2014-03-03 23:12:00,
2014-03-03 17:15:00,10.2,-6.0,30.09,South,184,2.0,5.0,47,0.00,,---,0.02,VWS V14.01,2014-03-03 23:15:00,
2014-03-03 17:17:00,11.7,-7.4,30.12,SW,225,2.0,9.0,41,0.00,,---,0.02,VWS V14.01,2014-03-03 23:17:00,
2014-03-03 17:20:00,10.2,-6.4,30.09,SSW,192,4.0,6.0,46,0.00,,---,0.02,VWS V14.01,2014-03-03 23:20:00,
2014-03-03 17:22:00,11.6,-7.0,30.12,SW,225,5.0,5.0,42,0.00,,---,0.02,VWS V14.01,2014-03-03 23:22:00,
2014-03-03 17:25:00,10.2,-5.6,30.09,SSW,192,3.0,5.0,48,0.00,,---,0.02,VWS V14.01,2014-03-03 23:25:00,
2014-03-03 17:27:00,11.4,-6.3,30.12,SW,224,2.0,8.0,44,0.00,,---,0.02,VWS V14.01,2014-03-03 23:27:00,
2014-03-03 17:30:00,10.2,-5.6,30.09,SSW,193,2.0,5.0,48,0.00,,---,0.02,VWS V14.01,2014-03-03 23:30:00,
2014-03-03 17:32:00,11.2,-6.9,30.12,SW,223,4.0,6.0,43,0.00,,---,0.02,VWS V14.01,2014-03-03 23:32:00,
2014-03-03 17:35:00,10.0,-5.8,30.09,SSW,193,2.0,5.0,48,0.00,,---,0.02,VWS V14.01,2014-03-03 23:35:00,
2014-03-03 17:37:00,11.1,-6.1,30.12,SW,219,6.0,7.0,45,0.00,,---,0.02,VWS V14.01,2014-03-03 23:37:00,
2014-03-03 17:40:00,10.0,-6.2,30.09,SSW,198,3.0,6.0,47,0.00,,---,0.02,VWS V14.01,2014-03-03 23:40:00,
2014-03-03 17:42:00,10.9,-6.7,30.12,SW,215,5.0,7.0,44,0.00,,---,0.02,VWS V14.01,2014-03-03 23:42:00,
2014-03-03 17:45:00,10.0,-5.8,30.09,SSW,203,2.0,6.0,48,0.00,,---,0.02,VWS V14.01,2014-03-03 23:45:00,
2014-03-03 17:47:00,10.7,-6.9,30.12,SSW,211,5.0,7.0,44,0.00,,---,0.02,VWS V14.01,2014-03-03 23:47:00,
2014-03-03 17:50:00,10.0,-5.8,30.09,SSW,202,5.0,6.0,48,0.00,,---,0.02,VWS V14.01,2014-03-03 23:50:00,
2014-03-03 17:52:00,10.5,-6.2,30.12,SSW,212,5.0,8.0,46,0.00,,---,0.02,VWS V14.01,2014-03-03 23:52:00,
2014-03-03 17:55:00,10.0,-6.2,30.09,SSW,212,3.0,7.0,47,0.00,,---,0.02,VWS V14.01,2014-03-03 23:55:00,
2014-03-03 17:57:00,10.4,-6.3,30.10,SSW,210,1.0,7.0,46,0.00,,---,0.02,VWS V14.01,2014-03-03 23:57:00,
2014-03-03 18:00:00,10.0,-6.2,30.09,SSW,212,5.0,5.0,47,0.00,,---,0.02,VWS V14.01,2014-03-04 00:00:00,
2014-03-03 18:02:00,10.4,-6.7,30.10,SW,226,4.0,7.0,45,0.00,,---,0.02,VWS V14.01,2014-03-04 00:02:00,
2014-03-03 18:05:00,10.0,-5.8,30.09,SSW,209,3.0,6.0,48,0.00,,---,0.02,VWS V14.01,2014-03-04 00:05:00,
2014-03-03 18:07:00,10.2,-6.0,30.10,SW,224,7.0,7.0,47,0.00,,---,0.02,VWS V14.01,2014-03-04 00:07:00,
2014-03-03 18:10:00,10.0,-5.8,30.09,SSW,210,0.0,6.0,48,0.00,,---,0.02,VWS V14.01,2014-03-04 00:10:00,
2014-03-03 18:12:00,10.2,-6.9,30.10,SSW,206,5.0,8.0,45,0.00,,---,0.02,VWS V14.01,2014-03-04 00:12:00,
2014-03-03 18:15:00,10.0,-5.8,30.08,SSW,210,1.0,2.0,48,0.00,,---,0.02,VWS V14.01,2014-03-04 00:15:00,
2014-03-03 18:17:00,10.2,-6.0,30.10,South,184,5.0,6.0,47,0.00,,---,0.02,VWS V14.01,2014-03-04 00:17:00,
2014-03-03 18:20:00,10.0,-5.3,30.08,SSW,210,0.0,1.0,49,0.00,,---,0.02,VWS V14.01,2014-03-04 00:20:00,
2014-03-03 18:22:00,10.2,-6.0,30.10,South,184,2.0,5.0,47,0.00,,---,0.02,VWS V14.01,2014-03-04 00:22:00,
2014-03-03 18:25:00,9.9,-5.9,30.08,SSW,210,4.0,5.0,48,0.00,,---,0.02,VWS V14.01,2014-03-04 00:25:00,
2014-03-03 18:27:00,10.2,-6.0,30.09,South,188,5.0,6.0,47,0.00,,---,0.02,VWS V14.01,2014-03-04 00:27:00,
2014-03-03 18:30:00,9.9,-5.9,30.08,SSW,210,2.0,4.0,48,0.00,,---,0.02,VWS V14.01,2014-03-04 00:30:00,
2014-03-03 18:32:00,10.2,-6.0,30.09,SSW,192,2.0,5.0,47,0.00,,---,0.02,VWS V14.01,2014-03-04 00:32:00,
2014-03-03 18:35:00,9.7,-5.6,30.08,SSW,210,2.0,4.0,49,0.00,,---,0.02,VWS V14.01,2014-03-04 00:35:00,
2014-03-03 18:37:00,10.2,-6.0,30.09,SSW,193,4.0,5.0,47,0.00,,---,0.02,VWS V14.01,2014-03-04 00:37:00,
2014-03-03 18:40:00,9.7,-5.6,30.08,SSW,210,2.0,2.0,49,0.00,,---,0.02,VWS V14.01,2014-03-04 00:40:00,
2014-03-03 18:42:00,10.2,-5.6,30.09,SSW,193,5.0,5.0,48,0.00,,---,0.02,VWS V14.01,2014-03-04 00:42:00,
2014-03-03 18:45:00,9.5,-5.8,30.08,SSW,210,0.0,2.0,49,0.00,,---,0.02,VWS V14.01,2014-03-04 00:45:00,
2014-03-03 18:47:00,10.0,-5.8,30.09,SSW,193,2.0,6.0,48,0.00,,---,0.02,VWS V14.01,2014-03-04 00:47:00,
2014-03-03 18:50:00,9.5,-5.4,30.08,SSW,210,1.0,2.0,50,0.00,,---,0.02,VWS V14.01,2014-03-04 00:50:00,
2014-03-03 18:52:00,10.0,-5.8,30.09,SSW,203,4.0,6.0,48,0.00,,---,0.02,VWS V14.01,2014-03-04 00:52:00,
2014-03-03 18:55:00,9.5,-5.4,30.08,SSW,210,1.0,3.0,50,0.00,,---,0.02,VWS V14.01,2014-03-04 00:55:00,
2014-03-03 18:57:00,10.0,-6.2,30.09,SSW,202,1.0,6.0,47,0.00,,---,0.02,VWS V14.01,2014-03-04 00:57:00,
2014-03-03 19:00:00,9.5,-5.4,30.07,SSW,210,0.0,1.0,50,0.00,,---,0.02,VWS V14.01,2014-03-04 01:00:00,
2014-03-03 19:02:00,10.0,-6.2,30.09,SSW,212,4.0,7.0,47,0.00,,---,0.02,VWS V14.01,2014-03-04 01:02:00,
2014-03-03 19:05:00,9.5,-5.4,30.07,SSW,210,2.0,4.0,50,0.00,,---,0.02,VWS V14.01,2014-03-04 01:05:00,
2014-03-03 19:07:00,10.0,-5.8,30.09,SSW,212,5.0,5.0,48,0.00,,---,0.02,VWS V14.01,2014-03-04 01:07:00,
2014-03-03 19:10:00,9.5,-5.0,30.07,SSW,209,2.0,4.0,51,0.00,,---,0.02,VWS V14.01,2014-03-04 01:10:00,
2014-03-03 19:12:00,10.0,-5.8,30.09,SSW,212,4.0,6.0,48,0.00,,---,0.02,VWS V14.01,2014-03-04 01:12:00,
2014-03-03 19:15:00,9.5,-5.0,30.06,SSW,208,2.0,5.0,51,0.00,,---,0.02,VWS V14.01,2014-03-04 01:15:00,
2014-03-03 19:17:00,10.0,-5.8,30.09,SSW,209,4.0,6.0,48,0.00,,---,0.02,VWS V14.01,2014-03-04 01:17:00,
2014-03-03 19:20:00,9.7,-4.0,30.06,SSW,207,1.0,4.0,53,0.00,,---,0.02,VWS V14.01,2014-03-04 01:20:00,
2014-03-03 19:22:00,10.0,-5.8,30.09,SSW,210,0.0,2.0,48,0.00,,---,0.02,VWS V14.01,2014-03-04 01:22:00,
2014-03-03 19:25:00,9.7,-4.0,30.06,SSW,207,0.0,4.0,53,0.00,,---,0.02,VWS V14.01,2014-03-04 01:25:00,
2014-03-03 19:27:00,10.0,-5.3,30.08,SSW,210,0.0,1.0,49,0.00,,---,0.02,VWS V14.01,2014-03-04 01:27:00,
2014-03-03 19:30:00,9.7,-4.0,30.06,SSW,207,1.0,4.0,53,0.00,,---,0.02,VWS V14.01,2014-03-04 01:30:00,
2014-03-03 19:32:00,9.9,-5.9,30.08,SSW,210,1.0,2.0,48,0.00,,---,0.02,VWS V14.01,2014-03-04 01:32:00,
2014-03-03 19:35:00,9.7,-3.6,30.06,SSW,207,2.0,4.0,54,0.00,,---,0.02,VWS V14.01,2014-03-04 01:35:00,
2014-03-03 19:37:00,9.9,-5.9,30.08,SSW,210,2.0,4.0,48,0.00,,---,0.02,VWS V14.01,2014-03-04 01:37:00,
2014-03-03 19:40:00,9.9,-3.0,30.06,SSW,207,2.0,3.0,55,0.00,,---,0.02,VWS V14.01,2014-03-04 01:40:00,
2014-03-03 19:42:00,9.9,-5.4,30.08,SSW,210,2.0,4.0,49,0.00,,---,0.02,VWS V14.01,2014-03-04 01:42:00,
2014-03-03 19:45:00,9.9,-3.0,30.05,SSW,207,4.0,4.0,55,0.00,,---,0.02,VWS V14.01,2014-03-04 01:45:00,
2014-03-03 19:47:00,9.7,-5.6,30.08,SSW,210,2.0,2.0,49,0.00,,---,0.02,VWS V14.01,2014-03-04 01:47:00,
2014-03-03 19:50:00,9.9,-3.4,30.05,SSW,207,2.0,5.0,54,0.00,,---,0.02,VWS V14.01,2014-03-04 01:50:00,
2014-03-03 19:52:00,9.7,-5.6,30.08,SSW,210,0.0,2.0,49,0.00,,---,0.02,VWS V14.01,2014-03-04 01:52:00,
2014-03-03 19:55:00,9.9,-3.8,30.05,SSW,207,2.0,5.0,53,0.00,,---,0.02,VWS V14.01,2014-03-04 01:55:00,
2014-03-03 19:57:00,9.5,-5.8,30.08,SSW,210,1.0,2.0,49,0.00,,---,0.02,VWS V14.01,2014-03-04 01:57:00,
2014-03-03 20:00:00,9.9,-3.4,30.05,SSW,195,3.0,6.0,54,0.00,,---,0.02,VWS V14.01,2014-03-04 02:00:00,
2014-03-03 20:02:00,9.5,-5.4,30.08,SSW,210,1.0,3.0,50,0.00,,---,0.02,VWS V14.01,2014-03-04 02:02:00,
2014-03-03 20:05:00,9.9,-3.4,30.05,South,184,4.0,5.0,54,0.00,,---,0.02,VWS V14.01,2014-03-04 02:05:00,
2014-03-03 20:07:00,9.5,-5.4,30.08,SSW,210,0.0,1.0,50,0.00,,---,0.02,VWS V14.01,2014-03-04 02:07:00,
2014-03-03 20:10:00,10.0,-3.7,30.05,SSE,159,5.0,7.0,53,0.00,,---,0.02,VWS V14.01,2014-03-04 02:10:00,
2014-03-03 20:12:00,9.5,-5.4,30.07,SSW,210,2.0,3.0,50,0.00,,---,0.02,VWS V14.01,2014-03-04 02:12:00,
2014-03-03 20:15:00,10.0,-3.7,30.04,South,177,2.0,6.0,53,0.00,,---,0.02,VWS V14.01,2014-03-04 02:15:00,
2014-03-03 20:17:00,9.5,-5.0,30.07,SSW,210,3.0,4.0,51,0.00,,---,0.02,VWS V14.01,2014-03-04 02:17:00,
2014-03-03 20:20:00,10.0,-3.7,30.04,SSW,193,6.0,8.0,53,0.00,,---,0.02,VWS V14.01,2014-03-04 02:20:00,
2014-03-03 20:22:00,9.5,-5.0,30.07,SSW,208,1.0,5.0,51,0.00,,---,0.02,VWS V14.01,2014-03-04 02:22:00,
2014-03-03 20:25:00,10.2,-3.5,30.04,SSW,192,4.0,7.0,53,0.00,,---,0.02,VWS V14.01,2014-03-04 02:25:00,
2014-03-03 20:27:00,9.5,-4.2,30.06,SSW,208,1.0,4.0,53,0.00,,---,0.02,VWS V14.01,2014-03-04 02:27:00,
2014-03-03 20:30:00,10.2,-3.1,30.04,South,181,2.0,7.0,54,0.00,,---,0.02,VWS V14.01,2014-03-04 02:30:00,
2014-03-03 20:32:00,9.7,-4.0,30.06,SSW,207,2.0,4.0,53,0.00,,---,0.02,VWS V14.01,2014-03-04 02:32:00,
2014-03-03 20:35:00,10.2,-3.1,30.04,South,172,4.0,7.0,54,0.00,,---,0.02,VWS V14.01,2014-03-04 02:35:00,
2014-03-03 20:37:00,9.7,-4.0,30.06,SSW,207,2.0,4.0,53,0.00,,---,0.02,VWS V14.01,2014-03-04 02:37:00,
2014-03-03 20:40:00,10.0,-3.3,30.04,South,173,2.0,6.0,54,0.00,,---,0.02,VWS V14.01,2014-03-04 02:40:00,
2014-03-03 20:42:00,9.7,-4.0,30.06,SSW,207,1.0,4.0,53,0.00,,---,0.02,VWS V14.01,2014-03-04 02:42:00,
2014-03-03 20:45:00,10.0,-3.3,30.04,South,177,4.0,7.0,54,0.00,,---,0.02,VWS V14.01,2014-03-04 02:45:00,
2014-03-03 20:47:00,9.7,-3.6,30.06,SSW,207,2.0,3.0,54,0.00,,---,0.02,VWS V14.01,2014-03-04 02:47:00,
2014-03-03 20:50:00,10.0,-3.3,30.04,SSW,207,6.0,8.0,54,0.00,,---,0.02,VWS V14.01,2014-03-04 02:50:00,
2014-03-03 20:52:00,9.9,-3.4,30.06,SSW,207,2.0,4.0,54,0.00,,---,0.02,VWS V14.01,2014-03-04 02:52:00,
2014-03-03 20:55:00,10.0,-3.7,30.04,SSW,195,8.0,8.0,53,0.00,,---,0.02,VWS V14.01,2014-03-04 02:55:00,
2014-03-03 20:57:00,9.9,-3.4,30.05,SSW,207,1.0,5.0,54,0.00,,---,0.02,VWS V14.01,2014-03-04 02:57:00,
2014-03-03 21:00:00,10.0,-3.7,30.04,SSW,207,4.0,8.0,53,0.00,,---,0.02,VWS V14.01,2014-03-04 03:00:00,
2014-03-03 21:02:00,9.9,-3.4,30.05,SSW,207,3.0,5.0,54,0.00,,---,0.02,VWS V14.01,2014-03-04 03:02:00,
2014-03-03 21:05:00,10.0,-3.3,30.04,SSW,207,1.0,6.0,54,0.00,,---,0.02,VWS V14.01,2014-03-04 03:05:00,
2014-03-03 21:07:00,9.9,-3.4,30.05,SSW,203,4.0,5.0,54,0.00,,---,0.02,VWS V14.01,2014-03-04 03:07:00,
2014-03-03 21:10:00,10.0,-3.7,30.04,SW,214,4.0,7.0,53,0.00,,---,0.02,VWS V14.01,2014-03-04 03:10:00,
2014-03-03 21:12:00,9.9,-3.8,30.05,SSW,195,1.0,5.0,53,0.00,,---,0.02,VWS V14.01,2014-03-04 03:12:00,
2014-03-03 21:15:00,10.0,-3.7,30.04,SSW,206,6.0,8.0,53,0.00,,---,0.02,VWS V14.01,2014-03-04 03:15:00,
2014-03-03 21:17:00,10.0,-3.7,30.05,SSE,156,5.0,7.0,53,0.00,,---,0.02,VWS V14.01,2014-03-04 03:17:00,
2014-03-03 21:20:00,10.0,-3.7,30.04,SW,221,5.0,7.0,53,0.00,,---,0.02,VWS V14.01,2014-03-04 03:20:00,
2014-03-03 21:22:00,10.0,-3.7,30.05,South,174,4.0,6.0,53,0.00,,---,0.02,VWS V14.01,2014-03-04 03:22:00,
2014-03-03 21:25:00,10.0,-3.3,30.04,SW,222,6.0,6.0,54,0.00,,---,0.02,VWS V14.01,2014-03-04 03:25:00,
2014-03-03 21:26:00,10.0,-3.3,30.04,South,186,6.0,7.0,54,0.00,,---,0.02,VWS V14.01,2014-03-04 03:26:00,
2014-03-03 21:30:00,10.0,-3.3,30.04,SSW,213,5.0,7.0,54,0.00,,---,0.02,VWS V14.01,2014-03-04 03:30:00,
2014-03-03 21:31:00,10.0,-3.7,30.04,South,190,5.0,7.0,53,0.00,,---,0.02,VWS V14.01,2014-03-04 03:31:00,
2014-03-03 21:35:00,10.0,-3.7,30.04,SW,233,4.0,7.0,53,0.00,,---,0.02,VWS V14.01,2014-03-04 03:35:00,
2014-03-03 21:36:00,10.2,-3.5,30.04,South,181,5.0,7.0,53,0.00,,---,0.02,VWS V14.01,2014-03-04 03:36:00,
2014-03-03 21:40:00,10.0,-3.7,30.04,SW,218,1.0,7.0,53,0.00,,---,0.02,VWS V14.01,2014-03-04 03:40:00,
2014-03-03 21:41:00,10.2,-3.5,30.04,South,170,2.0,7.0,53,0.00,,---,0.02,VWS V14.01,2014-03-04 03:41:00,
2014-03-03 21:45:00,10.0,-3.3,30.04,SW,221,5.0,6.0,54,0.00,,---,0.02,VWS V14.01,2014-03-04 03:45:00,
2014-03-03 21:46:00,10.0,-3.3,30.04,South,172,4.0,6.0,54,0.00,,---,0.02,VWS V14.01,2014-03-04 03:46:00,
2014-03-03 21:50:00,10.0,-3.7,30.04,SW,217,4.0,7.0,53,0.00,,---,0.02,VWS V14.01,2014-03-04 03:50:00,
2014-03-03 21:51:00,10.0,-3.7,30.04,South,175,2.0,7.0,53,0.00,,---,0.02,VWS V14.01,2014-03-04 03:51:00,
2014-03-03 21:55:00,9.9,-3.8,30.04,SW,225,5.0,7.0,53,0.00,,---,0.02,VWS V14.01,2014-03-04 03:55:00,
2014-03-03 21:56:00,10.0,-3.3,30.04,SSW,211,6.0,7.0,54,0.00,,---,0.02,VWS V14.01,2014-03-04 03:56:00,
2014-03-03 22:00:00,9.9,-4.2,30.03,SW,228,1.0,7.0,52,0.00,,---,0.02,VWS V14.01,2014-03-04 04:00:00,
2014-03-03 22:01:00,10.0,-3.3,30.04,SSE,168,5.0,7.0,54,0.00,,---,0.02,VWS V14.01,2014-03-04 04:01:00,
2014-03-03 22:05:00,9.9,-3.8,30.03,SW,225,2.0,6.0,53,0.00,,---,0.02,VWS V14.01,2014-03-04 04:05:00,
2014-03-03 22:06:00,10.0,-3.3,30.04,SSW,207,2.0,8.0,54,0.00,,---,0.02,VWS V14.01,2014-03-04 04:06:00,
2014-03-03 22:10:00,9.9,-3.8,30.03,SW,219,2.0,6.0,53,0.00,,---,0.02,VWS V14.01,2014-03-04 04:10:00,
2014-03-03 22:11:00,10.0,-3.3,30.04,SSW,207,5.0,6.0,54,0.00,,---,0.02,VWS V14.01,2014-03-04 04:11:00,
2014-03-03 22:15:00,9.9,-3.8,30.01,SSW,208,2.0,7.0,53,0.00,,---,0.02,VWS V14.01,2014-03-04 04:15:00,
2014-03-03 22:16:00,10.0,-3.3,30.04,SW,214,4.0,7.0,54,0.00,,---,0.02,VWS V14.01,2014-03-04 04:16:00,
2014-03-03 22:20:00,9.9,-3.8,30.01,SSW,202,5.0,6.0,53,0.00,,---,0.02,VWS V14.01,2014-03-04 04:20:00,
2014-03-03 22:21:00,10.0,-3.7,30.04,SW,226,5.0,6.0,53,0.00,,---,0.02,VWS V14.01,2014-03-04 04:21:00,
2014-03-03 22:25:00,9.9,-3.4,30.01,South,187,4.0,6.0,54,0.00,,---,0.02,VWS V14.01,2014-03-04 04:25:00,
2014-03-03 22:26:00,10.0,-3.7,30.04,SW,221,4.0,7.0,53,0.00,,---,0.02,VWS V14.01,2014-03-04 04:26:00,
2014-03-03 22:30:00,9.9,-3.0,30.00,South,186,2.0,5.0,55,0.00,,---,0.02,VWS V14.01,2014-03-04 04:30:00,
2014-03-03 22:31:00,10.0,-3.3,30.04,SW,221,5.0,5.0,54,0.00,,---,0.02,VWS V14.01,2014-03-04 04:31:00,
2014-03-03 22:35:00,9.9,-2.7,30.00,South,186,0.0,4.0,56,0.00,,---,0.02,VWS V14.01,2014-03-04 04:35:00,
2014-03-03 22:36:00,10.0,-3.7,30.04,SSW,212,5.0,7.0,53,0.00,,---,0.02,VWS V14.01,2014-03-04 04:36:00,
2014-03-03 22:40:00,9.7,-1.7,30.00,South,191,5.0,7.0,59,0.00,,---,0.02,VWS V14.01,2014-03-04 04:40:00,
2014-03-03 22:41:00,10.0,-3.7,30.04,SSW,213,6.0,7.0,53,0.00,,---,0.02,VWS V14.01,2014-03-04 04:41:00,
2014-03-03 22:45:00,9.7,-1.0,30.00,South,188,1.0,6.0,61,0.00,,---,0.02,VWS V14.01,2014-03-04 04:45:00,
2014-03-03 22:46:00,10.0,-3.7,30.04,SW,214,5.0,7.0,53,0.00,,---,0.02,VWS V14.01,2014-03-04 04:46:00,
2014-03-03 22:50:00,9.5,-0.9,30.00,South,184,2.0,5.0,62,0.00,,---,0.02,VWS V14.01,2014-03-04 04:50:00,
2014-03-03 22:51:00,10.0,-3.3,30.04,SW,218,2.0,5.0,54,0.00,,---,0.02,VWS V14.01,2014-03-04 04:51:00,
2014-03-03 22:55:00,9.5,-0.5,30.00,South,182,3.0,6.0,63,0.00,,---,0.02,VWS V14.01,2014-03-04 04:55:00,
2014-03-03 22:56:00,9.9,-3.8,30.04,SW,217,2.0,7.0,53,0.00,,---,0.02,VWS V14.01,2014-03-04 04:56:00,
2014-03-03 23:00:00,9.3,-0.7,30.00,South,179,4.0,6.0,63,0.00,,---,0.02,VWS V14.01,2014-03-04 05:00:00,
2014-03-03 23:01:00,9.9,-3.8,30.04,SW,215,2.0,7.0,53,0.00,,---,0.02,VWS V14.01,2014-03-04 05:01:00,
2014-03-03 23:05:00,9.3,-0.1,30.00,SSE,168,4.0,7.0,65,0.00,,---,0.00,VWS V14.01,2014-03-04 05:05:00,
2014-03-03 23:06:00,9.9,-4.2,30.04,SW,229,4.0,7.0,52,0.00,,---,0.02,VWS V14.01,2014-03-04 05:06:00,
2014-03-03 23:10:00,9.2,0.2,30.00,SSW,199,5.0,7.0,66,0.00,,---,0.00,VWS V14.01,2014-03-04 05:10:00,
2014-03-03 23:11:00,9.9,-3.8,30.03,SW,225,5.0,6.0,53,0.00,,---,0.02,VWS V14.01,2014-03-04 05:11:00,
2014-03-03 23:15:00,9.0,0.9,30.00,SSW,196,6.0,8.0,69,0.00,,---,0.00,VWS V14.01,2014-03-04 05:15:00,
2014-03-03 23:16:00,9.9,-3.8,30.03,SW,219,5.0,6.0,53,0.00,,---,0.02,VWS V14.01,2014-03-04 05:16:00,
2014-03-03 23:20:00,8.8,1.0,30.00,SSW,195,6.0,6.0,70,0.00,,---,0.00,VWS V14.01,2014-03-04 05:20:00,
2014-03-03 23:21:00,9.9,-4.2,30.03,SSW,207,3.0,7.0,52,0.00,,---,0.02,VWS V14.01,2014-03-04 05:21:00,
2014-03-03 23:25:00,8.6,1.1,30.00,SSW,198,3.0,7.0,71,0.00,,---,0.00,VWS V14.01,2014-03-04 05:25:00,
2014-03-03 23:26:00,9.9,-3.8,30.01,SSW,207,2.0,5.0,53,0.00,,---,0.02,VWS V14.01,2014-03-04 05:26:00,
2014-03-03 23:30:00,8.4,1.2,30.00,SSW,193,2.0,6.0,72,0.00,,---,0.00,VWS V14.01,2014-03-04 05:30:00,
2014-03-03 23:31:00,9.9,-3.4,30.01,SSW,202,2.0,5.0,54,0.00,,---,0.02,VWS V14.01,2014-03-04 05:31:00,
2014-03-03 23:35:00,8.4,1.8,30.00,South,185,5.0,7.0,74,0.00,,---,0.00,VWS V14.01,2014-03-04 05:35:00,
2014-03-03 23:36:00,9.9,-3.0,30.01,South,187,4.0,5.0,55,0.00,,---,0.02,VWS V14.01,2014-03-04 05:36:00,
2014-03-03 23:40:00,8.3,1.7,30.00,SSW,196,8.0,8.0,74,0.00,,---,0.00,VWS V14.01,2014-03-04 05:40:00,
2014-03-03 23:41:00,9.9,-2.7,30.00,South,186,2.0,4.0,56,0.00,,---,0.02,VWS V14.01,2014-03-04 05:41:00,
2014-03-03 23:45:00,8.1,1.8,29.99,South,169,2.0,9.0,75,0.00,,---,0.00,VWS V14.01,2014-03-04 05:45:00,
2014-03-03 23:46:00,9.7,-2.1,30.00,South,186,4.0,4.0,58,0.00,,---,0.02,VWS V14.01,2014-03-04 05:46:00,
2014-03-03 23:50:00,8.1,2.1,29.99,South,186,4.0,8.0,76,0.00,,---,0.00,VWS V14.01,2014-03-04 05:50:00,
2014-03-03 23:51:00,9.7,-1.4,30.00,South,188,5.0,6.0,60,0.00,,---,0.02,VWS V14.01,2014-03-04 05:51:00,
2014-03-03 23:55:00,8.1,2.1,29.99,SSW,206,5.0,7.0,76,0.00,,---,0.00,VWS V14.01,2014-03-04 05:55:00,
2014-03-03 23:56:00,9.7,-0.7,30.00,South,183,3.0,5.0,62,0.00,,---,0.02,VWS V14.01,2014-03-04 05:56:00,